Time,TemperatureF,DewpointF,PressureIn,WindDirection,WindDirectionDegrees,WindSpeedMPH,WindSpeedGustMPH,Humidity,HourlyPrecipIn,Conditions,Clouds,dailyrainin,SoftwareType,DateUTC
2013-05-19 00:04:00,65.4,57.6,28.34,North,0,4.9,9.3,76,0.04,,,0.02,WUHU216HW,2013-05-19 05:04:00,
2013-05-19 00:09:00,64.9,57.5,28.40,North,0,1.7,9.3,77,0.06,,,0.04,WUHU216HW,2013-05-19 05:09:00,
2013-05-19 00:14:00,64.4,57.3,28.40,NNW,338,0.0,6.0,78,0.10,,,0.08,WUHU216HW,2013-05-19 05:14:00,
2013-05-19 00:19:00,64.0,57.3,28.41,WSW,248,6.0,6.0,79,0.30,,,0.28,WUHU216HW,2013-05-19 05:19:00,
2013-05-19 00:24:00,63.6,57.3,28.39,SW,225,5.3,6.4,80,0.32,,,0.30,WUHU216HW,2013-05-19 05:24:00,
2013-05-19 00:29:00,63.5,57.3,28.37,NNW,338,1.3,6.4,81,0.41,,,0.38,WUHU216HW,2013-05-19 05:29:00,
2013-05-19 00:34:00,63.1,57.1,28.37,WSW,248,1.1,5.3,81,0.43,,,0.41,WUHU216HW,2013-05-19 05:34:00,
2013-05-19 00:39:00,62.9,57.3,28.35,North,0,6.9,6.9,82,0.43,,,0.41,WUHU216HW,2013-05-19 05:39:00,
2013-05-19 00:45:00,62.7,57.1,28.35,NNW,338,0.0,7.6,82,0.43,,,0.41,WUHU216HW,2013-05-19 05:45:00,
2013-05-19 00:50:00,62.6,56.9,28.36,NNW,338,0.0,7.6,82,0.41,,,0.41,WUHU216HW,2013-05-19 05:50:00,
2013-05-19 00:55:00,62.4,56.8,28.37,NNW,338,0.0,0.0,82,0.41,,,0.41,WUHU216HW,2013-05-19 05:55:00,
2013-05-19 01:00:00,62.4,56.8,28.37,NNW,338,0.0,0.0,82,0.41,,,0.41,WUHU216HW,2013-05-19 06:00:00,
2013-05-19 01:05:00,62.4,57.1,28.41,SSW,203,6.9,13.1,83,0.39,,,0.41,WUHU216HW,2013-05-19 06:05:00,
2013-05-19 01:10:00,62.4,57.1,28.41,South,180,3.8,13.1,83,0.35,,,0.43,WUHU216HW,2013-05-19 06:10:00,
2013-05-19 01:15:00,62.4,57.1,28.37,WSW,248,0.0,9.6,83,0.26,,,0.46,WUHU216HW,2013-05-19 06:15:00,
2013-05-19 01:20:00,62.4,57.1,28.36,WSW,248,0.0,1.5,83,0.20,,,0.48,WUHU216HW,2013-05-19 06:20:00,
2013-05-19 01:25:00,62.4,57.1,28.40,WSW,248,0.0,0.0,83,0.20,,,0.51,WUHU216HW,2013-05-19 06:25:00,
2013-05-19 01:30:00,62.2,56.9,28.40,SSW,203,4.6,4.6,83,0.10,,,0.51,WUHU216HW,2013-05-19 06:30:00,
2013-05-19 01:35:00,62.2,56.9,28.39,SSW,203,3.5,7.8,83,0.10,,,0.51,WUHU216HW,2013-05-19 06:35:00,
2013-05-19 01:40:00,62.2,56.9,28.39,SSW,203,4.9,7.8,83,0.10,,,0.51,WUHU216HW,2013-05-19 06:40:00,
2013-05-19 01:45:00,62.2,56.9,28.39,South,180,0.0,6.4,83,0.12,,,0.53,WUHU216HW,2013-05-19 06:45:00,
2013-05-19 01:50:00,62.2,56.9,28.39,SSE,158,4.6,6.4,83,0.12,,,0.53,WUHU216HW,2013-05-19 06:50:00,
2013-05-19 01:55:00,62.2,56.9,28.39,South,180,8.9,8.9,83,0.12,,,0.53,WUHU216HW,2013-05-19 06:55:00,
2013-05-19 02:00:00,62.2,56.9,28.38,South,180,12.7,12.7,83,0.14,,,0.55,WUHU216HW,2013-05-19 07:00:00,
2013-05-19 02:05:00,62.2,57.3,28.37,SSE,158,0.0,12.7,84,0.12,,,0.55,WUHU216HW,2013-05-19 07:05:00,
2013-05-19 02:10:00,62.0,57.3,28.36,SSE,158,0.0,12.7,84,0.08,,,0.55,WUHU216HW,2013-05-19 07:10:00,
2013-05-19 02:15:00,62.0,57.1,28.34,SSE,158,0.0,0.0,84,0.06,,,0.55,WUHU216HW,2013-05-19 07:15:00,
2013-05-19 02:20:00,61.8,56.9,28.30,SSE,158,0.0,0.0,84,0.06,,,0.55,WUHU216HW,2013-05-19 07:20:00,
2013-05-19 02:25:00,61.8,56.9,28.32,SSE,158,0.0,0.0,84,0.04,,,0.55,WUHU216HW,2013-05-19 07:25:00,
2013-05-19 02:30:00,61.8,56.9,28.33,SSE,158,0.0,0.0,84,0.04,,,0.55,WUHU216HW,2013-05-19 07:30:00,
2013-05-19 02:35:00,61.7,56.8,28.33,SSE,158,0.0,0.0,84,0.04,,,0.55,WUHU216HW,2013-05-19 07:35:00,
2013-05-19 02:40:00,61.7,57.1,28.35,SSE,158,0.0,0.0,85,0.02,,,0.55,WUHU216HW,2013-05-19 07:40:00,
2013-05-19 02:45:00,61.5,56.9,28.36,SSE,158,0.0,0.0,85,0.02,,,0.55,WUHU216HW,2013-05-19 07:45:00,
2013-05-19 02:50:00,61.5,56.9,28.37,SSE,158,0.0,0.0,85,0.02,,,0.55,WUHU216HW,2013-05-19 07:50:00,
2013-05-19 02:55:00,61.3,56.8,28.37,SSE,158,0.0,0.0,85,0.02,,,0.55,WUHU216HW,2013-05-19 07:55:00,
2013-05-19 03:01:00,61.3,56.4,28.36,SSE,158,0.0,0.0,84,0.00,,,0.55,WUHU216HW,2013-05-19 08:01:00,
2013-05-19 03:06:00,61.3,56.4,28.37,SSE,158,0.0,0.0,84,0.00,,,0.55,WUHU216HW,2013-05-19 08:06:00,
2013-05-19 03:11:00,61.3,56.4,28.34,SSE,158,0.0,0.0,84,0.00,,,0.55,WUHU216HW,2013-05-19 08:11:00,
2013-05-19 03:16:00,61.3,56.4,28.34,SSE,158,0.0,0.0,84,0.00,,,0.55,WUHU216HW,2013-05-19 08:16:00,
2013-05-19 03:21:00,61.1,56.3,28.34,SSE,158,0.0,0.0,84,0.00,,,0.55,WUHU216HW,2013-05-19 08:21:00,
2013-05-19 03:26:00,61.1,56.3,28.32,SSE,158,0.0,0.0,84,0.00,,,0.55,WUHU216HW,2013-05-19 08:26:00,
2013-05-19 03:31:00,61.3,56.8,28.31,North,0,6.0,6.0,85,0.00,,,0.55,WUHU216HW,2013-05-19 08:31:00,
2013-05-19 03:36:00,61.3,56.8,28.28,North,0,8.7,8.7,85,0.00,,,0.55,WUHU216HW,2013-05-19 08:36:00,
2013-05-19 03:41:00,61.5,56.9,28.27,North,0,1.5,8.7,85,0.00,,,0.55,WUHU216HW,2013-05-19 08:41:00,
2013-05-19 03:46:00,61.3,57.1,28.25,North,0,7.8,7.8,86,0.00,,,0.55,WUHU216HW,2013-05-19 08:46:00,
2013-05-19 03:51:00,61.3,57.1,28.26,North,0,2.4,7.8,86,0.00,,,0.55,WUHU216HW,2013-05-19 08:51:00,
2013-05-19 03:56:00,61.3,57.1,28.26,North,0,0.0,7.3,86,0.00,,,0.55,WUHU216HW,2013-05-19 08:56:00,
2013-05-19 04:02:00,61.3,57.1,28.27,East,90,0.0,2.4,86,0.00,,,0.55,WUHU216HW,2013-05-19 09:02:00,
2013-05-19 04:07:00,61.1,56.9,28.28,SSE,158,0.0,2.9,86,0.00,,,0.55,WUHU216HW,2013-05-19 09:07:00,
2013-05-19 04:12:00,61.1,56.9,28.27,SSE,158,0.0,2.9,86,0.00,,,0.55,WUHU216HW,2013-05-19 09:12:00,
2013-05-19 04:17:00,61.1,56.9,28.28,SSE,158,0.0,2.4,86,0.00,,,0.55,WUHU216HW,2013-05-19 09:17:00,
2013-05-19 04:22:00,61.1,56.9,28.29,SSE,158,0.0,0.0,86,0.00,,,0.55,WUHU216HW,2013-05-19 09:22:00,
2013-05-19 04:27:00,61.1,56.9,28.29,SE,135,0.0,0.0,86,0.00,,,0.55,WUHU216HW,2013-05-19 09:27:00,
2013-05-19 04:32:00,61.1,56.9,28.29,SSE,158,3.5,3.5,86,0.00,,,0.55,WUHU216HW,2013-05-19 09:32:00,
2013-05-19 04:37:00,61.1,56.9,28.28,South,180,8.9,8.9,86,0.00,,,0.55,WUHU216HW,2013-05-19 09:37:00,
2013-05-19 04:42:00,61.1,56.9,28.27,South,180,5.5,11.1,86,0.00,,,0.55,WUHU216HW,2013-05-19 09:42:00,
2013-05-19 04:47:00,61.1,56.9,28.27,South,180,2.4,11.1,86,0.00,,,0.55,WUHU216HW,2013-05-19 09:47:00,
2013-05-19 04:52:00,60.9,56.7,28.29,SSE,158,8.0,8.9,86,0.00,,,0.55,WUHU216HW,2013-05-19 09:52:00,
2013-05-19 04:57:00,60.9,56.7,28.28,SSE,158,0.0,8.9,86,0.00,,,0.55,WUHU216HW,2013-05-19 09:57:00,
2013-05-19 05:02:00,60.8,56.6,28.30,South,180,6.0,8.2,86,0.00,,,0.55,WUHU216HW,2013-05-19 10:02:00,
2013-05-19 05:08:00,60.6,56.4,28.30,South,180,0.0,8.2,86,0.00,,,0.55,WUHU216HW,2013-05-19 10:08:00,
2013-05-19 05:13:00,60.6,56.4,28.29,South,180,4.9,9.8,86,0.00,,,0.55,WUHU216HW,2013-05-19 10:13:00,
2013-05-19 05:18:00,60.6,56.4,28.29,SSW,203,2.4,11.8,86,0.00,,,0.55,WUHU216HW,2013-05-19 10:18:00,
2013-05-19 05:23:00,60.4,56.2,28.28,SSW,203,6.0,11.8,86,0.00,,,0.55,WUHU216HW,2013-05-19 10:23:00,
2013-05-19 05:28:00,60.4,56.5,28.28,SSW,203,7.8,8.7,87,0.00,,,0.55,WUHU216HW,2013-05-19 10:28:00,
2013-05-19 05:33:00,60.4,56.5,28.29,SSW,203,3.5,8.7,87,0.00,,,0.55,WUHU216HW,2013-05-19 10:33:00,
2013-05-19 05:38:00,60.2,56.4,28.30,SSW,203,0.0,7.8,87,0.00,,,0.55,WUHU216HW,2013-05-19 10:38:00,
2013-05-19 05:43:00,60.0,56.2,28.30,SSW,203,0.0,3.5,87,0.00,,,0.55,WUHU216HW,2013-05-19 10:43:00,
2013-05-19 05:48:00,60.0,56.2,28.29,SSW,203,0.0,1.5,87,0.00,,,0.55,WUHU216HW,2013-05-19 10:48:00,
2013-05-19 05:53:00,59.7,55.8,28.30,SSW,203,0.0,1.7,87,0.00,,,0.55,WUHU216HW,2013-05-19 10:53:00,
2013-05-19 05:58:00,59.5,55.6,28.30,SSW,203,1.7,1.7,87,0.00,,,0.55,WUHU216HW,2013-05-19 10:58:00,
2013-05-19 06:03:00,59.3,55.5,28.30,SSW,203,0.2,1.7,87,0.00,,,0.55,WUHU216HW,2013-05-19 11:03:00,
2013-05-19 06:08:00,59.3,55.5,28.30,SSW,203,0.0,2.6,87,0.00,,,0.55,WUHU216HW,2013-05-19 11:08:00,
2013-05-19 06:14:00,59.5,55.6,28.30,SSW,203,0.0,2.6,87,0.00,,,0.55,WUHU216HW,2013-05-19 11:14:00,
2013-05-19 06:19:00,59.3,55.5,28.29,SSW,203,0.0,0.0,87,0.00,,,0.55,WUHU216HW,2013-05-19 11:19:00,
2013-05-19 06:24:00,59.3,55.5,28.29,SSW,203,0.0,0.0,87,0.00,,,0.55,WUHU216HW,2013-05-19 11:24:00,
2013-05-19 06:29:00,59.1,55.3,28.28,SSW,203,0.0,0.0,87,0.00,,,0.55,WUHU216HW,2013-05-19 11:29:00,
2013-05-19 06:34:00,59.1,55.3,28.28,SSW,203,0.0,0.0,87,0.00,,,0.55,WUHU216HW,2013-05-19 11:34:00,
2013-05-19 06:39:00,58.8,54.9,28.28,SSW,203,0.0,0.0,87,0.00,,,0.55,WUHU216HW,2013-05-19 11:39:00,
2013-05-19 06:44:00,59.1,55.3,28.27,SSW,203,0.0,0.0,87,0.00,,,0.55,WUHU216HW,2013-05-19 11:44:00,
2013-05-19 06:49:00,59.3,55.5,28.26,SSW,203,0.0,0.0,87,0.00,,,0.55,WUHU216HW,2013-05-19 11:49:00,
2013-05-19 06:54:00,59.3,55.5,28.26,SSW,203,0.0,0.0,87,0.00,,,0.55,WUHU216HW,2013-05-19 11:54:00,
2013-05-19 06:59:00,59.7,55.8,28.26,SSW,203,0.0,0.0,87,0.00,,,0.55,WUHU216HW,2013-05-19 11:59:00,
2013-05-19 07:04:00,59.9,56.0,28.26,SSW,203,0.0,0.0,87,0.00,,,0.55,WUHU216HW,2013-05-19 12:04:00,
2013-05-19 07:09:00,60.0,56.2,28.26,SSW,203,0.0,0.0,87,0.00,,,0.55,WUHU216HW,2013-05-19 12:09:00,
2013-05-19 07:14:00,60.6,56.5,28.26,SE,135,0.0,0.0,87,0.00,,,0.55,WUHU216HW,2013-05-19 12:14:00,
2013-05-19 07:19:00,60.9,57.1,28.26,East,90,0.0,0.0,87,0.00,,,0.55,WUHU216HW,2013-05-19 12:19:00,
2013-05-19 07:25:00,61.5,57.6,28.27,East,90,0.0,0.0,87,0.00,,,0.55,WUHU216HW,2013-05-19 12:25:00,
2013-05-19 07:30:00,61.7,57.8,28.28,East,90,0.0,0.0,87,0.00,,,0.55,WUHU216HW,2013-05-19 12:30:00,
2013-05-19 07:35:00,61.8,57.9,28.30,ESE,113,0.0,0.0,87,0.00,,,0.55,WUHU216HW,2013-05-19 12:35:00,
2013-05-19 07:40:00,62.2,58.3,28.31,SE,135,0.0,0.0,87,0.00,,,0.55,WUHU216HW,2013-05-19 12:40:00,
2013-05-19 07:45:00,62.4,58.5,28.32,SSE,158,0.0,4.9,87,0.00,,,0.55,WUHU216HW,2013-05-19 12:45:00,
2013-05-19 07:50:00,62.2,58.3,28.31,SE,135,0.0,4.9,87,0.00,,,0.55,WUHU216HW,2013-05-19 12:50:00,
2013-05-19 07:55:00,62.2,58.3,28.31,South,180,5.8,7.8,87,0.00,,,0.55,WUHU216HW,2013-05-19 12:55:00,
2013-05-19 08:00:00,62.2,58.3,28.31,South,180,6.9,7.8,87,0.00,,,0.55,WUHU216HW,2013-05-19 13:00:00,
2013-05-19 08:05:00,62.0,58.1,28.30,SSE,158,2.4,7.8,87,0.00,,,0.55,WUHU216HW,2013-05-19 13:05:00,
2013-05-19 08:10:00,62.2,58.3,28.30,South,180,0.0,6.9,87,0.00,,,0.55,WUHU216HW,2013-05-19 13:10:00,
2013-05-19 08:15:00,62.0,58.1,28.30,South,180,0.0,5.3,87,0.00,,,0.55,WUHU216HW,2013-05-19 13:15:00,
2013-05-19 08:20:00,62.2,58.3,28.30,South,180,5.1,7.3,87,0.00,,,0.55,WUHU216HW,2013-05-19 13:20:00,
2013-05-19 08:25:00,62.2,58.3,28.30,South,180,6.4,7.3,87,0.00,,,0.55,WUHU216HW,2013-05-19 13:25:00,
2013-05-19 08:30:00,62.2,58.3,28.31,South,180,4.0,7.1,87,0.00,,,0.55,WUHU216HW,2013-05-19 13:30:00,
2013-05-19 08:35:00,62.4,58.5,28.31,South,180,0.6,7.1,87,0.00,,,0.55,WUHU216HW,2013-05-19 13:35:00,
2013-05-19 08:40:00,62.4,58.5,28.31,South,180,0.0,4.4,87,0.00,,,0.55,WUHU216HW,2013-05-19 13:40:00,
2013-05-19 08:45:00,62.4,58.5,28.31,South,180,0.0,2.4,87,0.00,,,0.55,WUHU216HW,2013-05-19 13:45:00,
2013-05-19 08:51:00,62.4,58.1,28.31,South,180,0.0,1.7,86,0.00,,,0.55,WUHU216HW,2013-05-19 13:51:00,
2013-05-19 08:56:00,62.7,58.5,28.30,South,180,2.4,2.4,86,0.00,,,0.55,WUHU216HW,2013-05-19 13:56:00,
2013-05-19 09:01:00,62.7,58.5,28.29,South,180,0.0,2.4,86,0.00,,,0.55,WUHU216HW,2013-05-19 14:01:00,
2013-05-19 09:06:00,62.9,58.7,28.28,South,180,0.0,2.4,86,0.00,,,0.55,WUHU216HW,2013-05-19 14:06:00,
2013-05-19 09:11:00,63.1,58.8,28.27,South,180,0.0,0.0,86,0.00,,,0.55,WUHU216HW,2013-05-19 14:11:00,
2013-05-19 09:16:00,63.1,58.5,28.28,South,180,0.0,0.0,85,0.00,,,0.55,WUHU216HW,2013-05-19 14:16:00,
2013-05-19 09:21:00,63.3,58.7,28.28,South,180,2.0,2.0,85,0.00,,,0.55,WUHU216HW,2013-05-19 14:21:00,
2013-05-19 09:26:00,63.5,58.9,28.28,South,180,0.0,2.0,85,0.00,,,0.55,WUHU216HW,2013-05-19 14:26:00,
2013-05-19 09:31:00,63.6,59.0,28.27,South,180,0.8,2.6,85,0.00,,,0.55,WUHU216HW,2013-05-19 14:31:00,
2013-05-19 09:36:00,63.8,59.2,28.27,South,180,0.0,2.6,85,0.00,,,0.55,WUHU216HW,2013-05-19 14:36:00,
2013-05-19 09:41:00,64.0,59.1,28.26,South,180,1.7,1.7,84,0.00,,,0.55,WUHU216HW,2013-05-19 14:41:00,
2013-05-19 09:46:00,64.2,59.6,28.25,SE,135,5.5,5.5,85,0.00,,,0.55,WUHU216HW,2013-05-19 14:46:00,
2013-05-19 09:51:00,64.2,59.2,28.24,SE,135,2.9,5.5,84,0.00,,,0.55,WUHU216HW,2013-05-19 14:51:00,
2013-05-19 09:56:00,64.2,59.2,28.25,SSE,158,6.0,6.0,84,0.00,,,0.55,WUHU216HW,2013-05-19 14:56:00,
2013-05-19 10:01:00,64.2,59.2,28.25,SSE,158,6.7,7.8,84,0.00,,,0.55,WUHU216HW,2013-05-19 15:01:00,
2013-05-19 10:06:00,64.2,59.2,28.25,SE,135,3.3,7.8,84,0.00,,,0.55,WUHU216HW,2013-05-19 15:06:00,
2013-05-19 10:11:00,64.2,59.2,28.25,SE,135,3.5,6.7,84,0.00,,,0.55,WUHU216HW,2013-05-19 15:11:00,
2013-05-19 10:16:00,64.2,59.2,28.25,SSE,158,0.0,6.4,84,0.00,,,0.55,WUHU216HW,2013-05-19 15:16:00,
2013-05-19 10:21:00,64.2,59.2,28.25,SE,135,3.3,6.4,84,0.00,,,0.55,WUHU216HW,2013-05-19 15:21:00,
2013-05-19 10:26:00,64.2,59.2,28.25,SSE,158,2.6,8.5,84,0.00,,,0.55,WUHU216HW,2013-05-19 15:26:00,
2013-05-19 10:31:00,64.5,59.6,28.26,SSE,158,5.3,8.5,84,0.00,,,0.55,WUHU216HW,2013-05-19 15:31:00,
2013-05-19 10:36:00,64.5,59.6,28.26,South,180,4.4,6.7,84,0.00,,,0.55,WUHU216HW,2013-05-19 15:36:00,
2013-05-19 10:41:00,64.7,59.8,28.26,SSE,158,9.8,9.8,84,0.00,,,0.55,WUHU216HW,2013-05-19 15:41:00,
2013-05-19 10:46:00,64.9,59.9,28.26,SSE,158,10.0,10.0,84,0.00,,,0.55,WUHU216HW,2013-05-19 15:46:00,
2013-05-19 10:51:00,65.1,60.1,28.26,South,180,4.2,10.0,84,0.02,,,0.57,WUHU216HW,2013-05-19 15:51:00,
2013-05-19 10:57:00,65.3,60.3,28.26,SSE,158,4.0,10.0,84,0.02,,,0.57,WUHU216HW,2013-05-19 15:57:00,
2013-05-19 11:02:00,65.6,60.4,28.26,SSE,158,6.0,6.7,84,0.02,,,0.57,WUHU216HW,2013-05-19 16:02:00,
2013-05-19 11:07:00,66.0,60.6,28.25,SE,135,5.1,7.1,83,0.02,,,0.57,WUHU216HW,2013-05-19 16:07:00,
2013-05-19 11:12:00,66.3,61.0,28.25,SSE,158,6.2,7.3,83,0.02,,,0.57,WUHU216HW,2013-05-19 16:12:00,
2013-05-19 11:17:00,66.5,60.9,28.26,South,180,6.0,10.2,83,0.02,,,0.57,WUHU216HW,2013-05-19 16:17:00,
2013-05-19 11:22:00,66.7,61.0,28.27,SSE,158,4.0,10.2,82,0.02,,,0.57,WUHU216HW,2013-05-19 16:22:00,
2013-05-19 11:27:00,67.1,61.4,28.27,SE,135,6.9,6.9,82,0.02,,,0.57,WUHU216HW,2013-05-19 16:27:00,
2013-05-19 11:32:00,67.2,61.3,28.26,SSE,158,5.1,7.1,81,0.02,,,0.57,WUHU216HW,2013-05-19 16:32:00,
2013-05-19 11:37:00,67.2,61.3,28.27,SSE,158,4.4,9.1,81,0.02,,,0.57,WUHU216HW,2013-05-19 16:37:00,
2013-05-19 11:42:00,67.2,61.3,28.27,SSE,158,7.3,9.1,81,0.02,,,0.57,WUHU216HW,2013-05-19 16:42:00,
2013-05-19 11:47:00,67.6,61.6,28.27,South,180,5.1,7.3,81,0.02,,,0.57,WUHU216HW,2013-05-19 16:47:00,
2013-05-19 11:52:00,67.8,61.8,28.27,SSE,158,6.9,7.3,81,0.00,,,0.57,WUHU216HW,2013-05-19 16:52:00,
2013-05-19 11:57:00,67.8,61.8,28.27,SE,135,4.6,7.3,81,0.00,,,0.57,WUHU216HW,2013-05-19 16:57:00,
2013-05-19 12:02:00,68.1,61.8,28.27,South,180,6.2,11.8,80,0.00,,,0.57,WUHU216HW,2013-05-19 17:02:00,
2013-05-19 12:07:00,68.5,62.1,28.27,South,180,12.0,12.0,80,0.00,,,0.57,WUHU216HW,2013-05-19 17:07:00,
2013-05-19 12:12:00,69.0,62.6,28.27,South,180,8.0,12.0,80,0.00,,,0.57,WUHU216HW,2013-05-19 17:12:00,
2013-05-19 12:17:00,69.9,63.1,28.26,SSW,203,8.9,13.4,79,0.00,,,0.57,WUHU216HW,2013-05-19 17:17:00,
2013-05-19 12:22:00,70.3,63.1,28.26,South,180,7.3,13.4,78,0.00,,,0.57,WUHU216HW,2013-05-19 17:22:00,
2013-05-19 12:27:00,70.7,63.4,28.26,South,180,7.8,8.9,78,0.00,,,0.57,WUHU216HW,2013-05-19 17:27:00,
2013-05-19 12:32:00,71.7,64.1,28.26,SSE,158,4.2,9.8,77,0.00,,,0.57,WUHU216HW,2013-05-19 17:32:00,
2013-05-19 12:37:00,72.3,64.3,28.25,South,180,8.7,10.9,76,0.00,,,0.57,WUHU216HW,2013-05-19 17:37:00,
2013-05-19 12:42:00,72.6,64.6,28.25,South,180,10.9,10.9,76,0.00,,,0.57,WUHU216HW,2013-05-19 17:42:00,
2013-05-19 12:47:00,73.0,64.2,28.25,South,180,9.3,12.9,74,0.00,,,0.57,WUHU216HW,2013-05-19 17:47:00,
2013-05-19 12:52:00,73.2,64.4,28.24,South,180,8.5,13.1,74,0.00,,,0.57,WUHU216HW,2013-05-19 17:52:00,
2013-05-19 12:57:00,74.1,65.3,28.24,South,180,10.2,13.1,74,0.00,,,0.57,WUHU216HW,2013-05-19 17:57:00,
2013-05-19 13:02:00,74.4,65.2,28.24,South,180,12.0,12.0,73,0.00,,,0.57,WUHU216HW,2013-05-19 18:02:00,
2013-05-19 13:07:00,74.4,64.4,28.24,SSW,203,8.7,12.0,71,0.00,,,0.57,WUHU216HW,2013-05-19 18:07:00,
2013-05-19 13:12:00,74.4,64.4,28.25,SSE,158,7.1,9.8,71,0.00,,,0.57,WUHU216HW,2013-05-19 18:12:00,
2013-05-19 13:17:00,74.4,64.4,28.25,SSE,158,6.2,8.9,71,0.00,,,0.57,WUHU216HW,2013-05-19 18:17:00,
2013-05-19 13:22:00,74.4,64.4,28.25,South,180,7.8,8.9,71,0.00,,,0.57,WUHU216HW,2013-05-19 18:22:00,
2013-05-19 13:27:00,74.4,64.4,28.25,South,180,12.0,12.0,71,0.00,,,0.57,WUHU216HW,2013-05-19 18:27:00,
2013-05-19 13:32:00,74.8,64.8,28.26,South,180,6.9,12.0,71,0.00,,,0.57,WUHU216HW,2013-05-19 18:32:00,
2013-05-19 13:37:00,75.2,64.7,28.26,South,180,3.8,12.0,70,0.00,,,0.57,WUHU216HW,2013-05-19 18:37:00,
2013-05-19 13:42:00,76.1,65.6,28.27,South,180,6.4,13.4,70,0.00,,,0.57,WUHU216HW,2013-05-19 18:42:00,
2013-05-19 13:47:00,76.2,64.9,28.27,South,180,6.9,13.4,68,0.00,,,0.57,WUHU216HW,2013-05-19 18:47:00,
2013-05-19 13:52:00,76.6,65.3,28.26,South,180,5.8,11.6,68,0.00,,,0.57,WUHU216HW,2013-05-19 18:52:00,
2013-05-19 13:57:00,76.6,65.3,28.25,South,180,7.3,11.6,68,0.00,,,0.57,WUHU216HW,2013-05-19 18:57:00,
2013-05-19 14:02:00,76.2,64.9,28.24,South,180,9.6,9.6,68,0.00,,,0.57,WUHU216HW,2013-05-19 19:02:00,
2013-05-19 14:07:00,76.2,64.9,28.25,South,180,7.1,9.6,68,0.00,,,0.57,WUHU216HW,2013-05-19 19:07:00,
2013-05-19 14:12:00,76.2,64.9,28.24,SSW,203,7.8,7.8,68,0.00,,,0.57,WUHU216HW,2013-05-19 19:12:00,
2013-05-19 14:17:00,76.8,65.4,28.24,SSW,203,0.0,7.8,68,0.00,,,0.57,WUHU216HW,2013-05-19 19:17:00,
2013-05-19 14:22:00,77.1,65.6,28.24,South,180,2.6,7.8,67,0.00,,,0.57,WUHU216HW,2013-05-19 19:22:00,
2013-05-19 14:27:00,77.5,65.2,28.24,SSW,203,7.3,7.3,66,0.00,,,0.57,WUHU216HW,2013-05-19 19:27:00,
2013-05-19 14:33:00,77.3,65.0,28.25,SSW,203,0.8,7.3,66,0.00,,,0.57,WUHU216HW,2013-05-19 19:33:00,
2013-05-19 14:38:00,77.0,64.5,28.25,SSW,203,1.5,7.3,66,0.00,,,0.57,WUHU216HW,2013-05-19 19:38:00,
2013-05-19 14:43:00,76.4,64.6,28.26,SSW,203,0.0,4.4,67,0.00,,,0.57,WUHU216HW,2013-05-19 19:43:00,
2013-05-19 14:48:00,76.1,64.3,28.27,SSW,203,2.9,2.9,67,0.00,,,0.57,WUHU216HW,2013-05-19 19:48:00,
2013-05-19 14:53:00,75.3,64.0,28.28,SSW,203,2.9,2.9,68,0.00,,,0.57,WUHU216HW,2013-05-19 19:53:00,
2013-05-19 14:58:00,74.8,63.5,28.30,SSW,203,0.8,2.9,68,0.00,,,0.57,WUHU216HW,2013-05-19 19:58:00,
2013-05-19 15:03:00,74.3,63.0,28.31,SSW,203,3.3,3.3,68,0.00,,,0.57,WUHU216HW,2013-05-19 20:03:00,
2013-05-19 15:08:00,73.7,63.0,28.30,North,0,0.0,3.3,69,0.00,,,0.57,WUHU216HW,2013-05-19 20:08:00,
2013-05-19 15:13:00,72.6,62.7,28.27,SSW,203,0.0,1.5,71,0.00,,,0.57,WUHU216HW,2013-05-19 20:13:00,
2013-05-19 15:18:00,72.1,63.0,28.26,SSW,203,5.3,5.3,73,0.02,,,0.59,WUHU216HW,2013-05-19 20:18:00,
2013-05-19 15:23:00,70.8,62.8,28.25,SSW,203,5.8,6.7,75,0.02,,,0.59,WUHU216HW,2013-05-19 20:23:00,
2013-05-19 15:28:00,70.3,62.7,28.24,NE,45,5.3,6.7,77,0.04,,,0.61,WUHU216HW,2013-05-19 20:28:00,
2013-05-19 15:33:00,69.9,62.7,28.20,NE,45,2.9,7.3,78,0.06,,,0.63,WUHU216HW,2013-05-19 20:33:00,
2013-05-19 15:38:00,69.4,62.2,28.22,North,0,0.0,7.3,78,0.06,,,0.63,WUHU216HW,2013-05-19 20:38:00,
2013-05-19 15:43:00,69.0,61.9,28.23,NNE,23,0.0,0.0,78,0.06,,,0.63,WUHU216HW,2013-05-19 20:43:00,
2013-05-19 15:48:00,68.9,62.1,28.22,NNE,23,1.7,1.7,79,0.06,,,0.63,WUHU216HW,2013-05-19 20:48:00,
2013-05-19 15:53:00,68.7,61.9,28.22,NNE,23,0.0,1.7,79,0.06,,,0.63,WUHU216HW,2013-05-19 20:53:00,
2013-05-19 15:58:00,68.9,62.5,28.22,NNE,23,3.3,3.3,80,0.06,,,0.63,WUHU216HW,2013-05-19 20:58:00,
2013-05-19 16:03:00,68.9,62.8,28.22,North,0,0.0,4.9,81,0.06,,,0.63,WUHU216HW,2013-05-19 21:03:00,
2013-05-19 16:08:00,69.4,63.3,28.22,North,0,3.3,4.9,81,0.06,,,0.63,WUHU216HW,2013-05-19 21:08:00,
2013-05-19 16:13:00,70.3,64.2,28.22,North,0,4.2,4.2,81,0.04,,,0.63,WUHU216HW,2013-05-19 21:13:00,
2013-05-19 16:18:00,71.4,64.5,28.22,North,0,0.0,4.2,79,0.04,,,0.63,WUHU216HW,2013-05-19 21:18:00,
2013-05-19 16:23:00,72.3,65.4,28.22,North,0,0.0,2.2,79,0.02,,,0.63,WUHU216HW,2013-05-19 21:23:00,
2013-05-19 16:28:00,73.2,65.9,28.22,North,0,0.0,0.0,78,0.02,,,0.63,WUHU216HW,2013-05-19 21:28:00,
2013-05-19 16:33:00,73.9,65.5,28.21,North,0,0.0,0.0,75,0.00,,,0.63,WUHU216HW,2013-05-19 21:33:00,
2013-05-19 16:38:00,74.1,65.3,28.21,NE,45,5.5,5.5,74,0.00,,,0.63,WUHU216HW,2013-05-19 21:38:00,
2013-05-19 16:44:00,74.4,65.2,28.20,NE,45,0.6,5.5,73,0.00,,,0.63,WUHU216HW,2013-05-19 21:44:00,
2013-05-19 16:49:00,75.0,64.9,28.20,NE,45,1.7,5.5,71,0.00,,,0.63,WUHU216HW,2013-05-19 21:49:00,
2013-05-19 16:54:00,75.0,64.9,28.20,NE,45,0.0,4.9,71,0.00,,,0.63,WUHU216HW,2013-05-19 21:54:00,
2013-05-19 16:59:00,75.0,64.5,28.19,East,90,3.1,6.0,70,0.00,,,0.63,WUHU216HW,2013-05-19 21:59:00,
2013-05-19 17:04:00,74.3,63.9,28.17,East,90,0.0,6.0,70,0.00,,,0.63,WUHU216HW,2013-05-19 22:04:00,
2013-05-19 17:09:00,73.7,64.2,28.16,NE,45,10.0,10.0,72,0.00,,,0.63,WUHU216HW,2013-05-19 22:09:00,
2013-05-19 17:14:00,73.2,64.0,28.16,NNE,23,0.0,10.0,73,0.00,,,0.63,WUHU216HW,2013-05-19 22:14:00,
2013-05-19 17:19:00,72.5,63.3,28.16,NNE,23,2.2,10.0,73,0.00,,,0.63,WUHU216HW,2013-05-19 22:19:00,
2013-05-19 17:24:00,72.3,63.1,28.16,NNE,23,0.4,3.1,73,0.00,,,0.63,WUHU216HW,2013-05-19 22:24:00,
2013-05-19 17:29:00,72.1,63.0,28.16,NNE,23,0.0,3.1,73,0.00,,,0.63,WUHU216HW,2013-05-19 22:29:00,
2013-05-19 17:34:00,72.3,63.9,28.15,NNE,23,3.8,6.7,75,0.00,,,0.63,WUHU216HW,2013-05-19 22:34:00,
2013-05-19 17:39:00,73.2,64.8,28.16,NNE,23,0.0,6.7,75,0.00,,,0.63,WUHU216HW,2013-05-19 22:39:00,
2013-05-19 17:44:00,73.9,65.1,28.16,ENE,68,3.5,3.8,74,0.00,,,0.63,WUHU216HW,2013-05-19 22:44:00,
2013-05-19 17:49:00,74.8,65.2,28.16,ENE,68,0.0,5.8,72,0.00,,,0.63,WUHU216HW,2013-05-19 22:49:00,
2013-05-19 17:54:00,75.2,65.5,28.15,SE,135,4.6,5.8,72,0.00,,,0.63,WUHU216HW,2013-05-19 22:54:00,
2013-05-19 17:59:00,75.3,64.9,28.16,ESE,113,0.0,4.6,70,0.00,,,0.63,WUHU216HW,2013-05-19 22:59:00,
2013-05-19 18:04:00,75.3,64.4,28.15,ESE,113,2.4,4.6,69,0.00,,,0.63,WUHU216HW,2013-05-19 23:04:00,
2013-05-19 18:09:00,75.0,64.1,28.13,ESE,113,0.0,4.0,69,0.00,,,0.63,WUHU216HW,2013-05-19 23:09:00,
2013-05-19 18:14:00,74.3,63.5,28.13,ESE,113,0.0,2.4,69,0.00,,,0.63,WUHU216HW,2013-05-19 23:14:00,
2013-05-19 18:19:00,73.9,63.6,28.14,ESE,113,0.0,4.2,70,0.00,,,0.63,WUHU216HW,2013-05-19 23:19:00,
2013-05-19 18:24:00,73.2,62.9,28.16,ESE,113,5.1,5.1,70,0.00,,,0.63,WUHU216HW,2013-05-19 23:24:00,
2013-05-19 18:29:00,73.0,62.7,28.17,SE,135,4.6,6.4,70,0.00,,,0.63,WUHU216HW,2013-05-19 23:29:00,
2013-05-19 18:34:00,72.5,62.2,28.17,SE,135,1.7,6.4,70,0.00,,,0.63,WUHU216HW,2013-05-19 23:34:00,
2013-05-19 18:39:00,72.3,62.0,28.16,SE,135,7.8,7.8,70,0.00,,,0.63,WUHU216HW,2013-05-19 23:39:00,
2013-05-19 18:44:00,71.7,61.2,28.16,South,180,5.5,7.8,69,0.00,,,0.63,WUHU216HW,2013-05-19 23:44:00,
2013-05-19 18:49:00,71.4,60.7,28.17,SSE,158,8.5,11.1,69,0.00,,,0.63,WUHU216HW,2013-05-19 23:49:00,
2013-05-19 18:54:00,71.2,60.9,28.17,SSE,158,6.0,11.1,70,0.00,,,0.63,WUHU216HW,2013-05-19 23:54:00,
2013-05-19 18:59:00,70.7,60.8,28.16,South,180,1.3,6.0,71,0.00,,,0.63,WUHU216HW,2013-05-19 23:59:00,
2013-05-19 19:04:00,70.3,60.8,28.15,SE,135,7.3,7.3,72,0.00,,,0.63,WUHU216HW,2013-05-20 00:04:00,
2013-05-19 19:09:00,69.9,60.4,28.16,South,180,11.8,11.8,72,0.00,,,0.63,WUHU216HW,2013-05-20 00:09:00,
2013-05-19 19:14:00,69.6,60.8,28.15,SSE,158,11.1,11.8,74,0.00,,,0.63,WUHU216HW,2013-05-20 00:14:00,
2013-05-19 19:19:00,69.0,60.4,28.16,South,180,7.8,20.3,74,0.00,,,0.63,WUHU216HW,2013-05-20 00:19:00,
2013-05-19 19:24:00,68.7,59.7,28.16,South,180,12.0,20.3,73,0.00,,,0.63,WUHU216HW,2013-05-20 00:24:00,
2013-05-19 19:29:00,68.1,59.2,28.16,SSW,203,13.4,13.4,73,0.00,,,0.63,WUHU216HW,2013-05-20 00:29:00,
2013-05-19 19:34:00,67.8,58.8,28.18,SSW,203,16.7,16.7,73,0.00,,,0.63,WUHU216HW,2013-05-20 00:34:00,
2013-05-19 19:39:00,67.2,57.9,28.17,SSW,203,6.9,16.7,72,0.00,,,0.63,WUHU216HW,2013-05-20 00:39:00,
2013-05-19 19:44:00,67.1,57.7,28.17,SSW,203,9.6,15.6,72,0.00,,,0.63,WUHU216HW,2013-05-20 00:44:00,
2013-05-19 19:49:00,66.7,57.4,28.17,SSW,203,15.6,15.6,72,0.00,,,0.63,WUHU216HW,2013-05-20 00:49:00,
2013-05-19 19:54:00,66.3,57.0,28.16,South,180,4.6,15.6,72,0.00,,,0.63,WUHU216HW,2013-05-20 00:54:00,
2013-05-19 19:59:00,66.0,57.0,28.15,South,180,11.1,11.1,73,0.00,,,0.63,WUHU216HW,2013-05-20 00:59:00,
2013-05-19 20:04:00,65.8,56.9,28.15,South,180,13.8,14.0,73,0.00,,,0.63,WUHU216HW,2013-05-20 01:04:00,
2013-05-19 20:09:00,65.3,56.4,28.14,South,180,20.5,20.5,73,0.00,,,0.63,WUHU216HW,2013-05-20 01:09:00,
2013-05-19 20:14:00,65.1,55.8,28.14,SSW,203,20.3,20.5,72,0.00,,,0.63,WUHU216HW,2013-05-20 01:14:00,
2013-05-19 20:20:00,64.9,55.3,28.13,SSW,203,8.7,20.5,71,0.00,,,0.63,WUHU216HW,2013-05-20 01:20:00,
2013-05-19 20:25:00,64.7,55.0,28.13,South,180,9.6,20.3,71,0.00,,,0.63,WUHU216HW,2013-05-20 01:25:00,
2013-05-19 20:30:00,64.2,54.6,28.14,South,180,13.6,19.2,71,0.00,,,0.63,WUHU216HW,2013-05-20 01:30:00,
2013-05-19 20:35:00,64.2,54.6,28.14,South,180,16.3,20.3,71,0.00,,,0.63,WUHU216HW,2013-05-20 01:35:00,
2013-05-19 20:40:00,63.8,54.3,28.15,SSW,203,6.7,20.3,71,0.00,,,0.63,WUHU216HW,2013-05-20 01:40:00,
2013-05-19 20:45:00,63.6,54.1,28.15,South,180,7.6,13.6,71,0.00,,,0.63,WUHU216HW,2013-05-20 01:45:00,
2013-05-19 20:50:00,63.5,54.3,28.16,SSW,203,4.4,12.7,72,0.00,,,0.63,WUHU216HW,2013-05-20 01:50:00,
2013-05-19 20:55:00,63.3,54.1,28.16,South,180,3.3,11.4,72,0.00,,,0.63,WUHU216HW,2013-05-20 01:55:00,
2013-05-19 21:00:00,63.1,53.9,28.15,South,180,0.4,11.4,72,0.00,,,0.63,WUHU216HW,2013-05-20 02:00:00,
2013-05-19 21:05:00,63.1,53.9,28.15,South,180,0.8,3.5,72,0.00,,,0.63,WUHU216HW,2013-05-20 02:05:00,
2013-05-19 21:10:00,62.7,53.6,28.15,South,180,0.0,0.8,72,0.00,,,0.63,WUHU216HW,2013-05-20 02:10:00,
2013-05-19 21:15:00,62.6,53.7,28.17,South,180,0.0,0.0,73,0.00,,,0.63,WUHU216HW,2013-05-20 02:15:00,
2013-05-19 21:20:00,62.4,53.6,28.23,NW,315,0.4,13.4,73,0.00,,,0.63,WUHU216HW,2013-05-20 02:20:00,
2013-05-19 21:25:00,62.4,53.2,28.23,South,180,7.8,13.4,72,0.00,,,0.63,WUHU216HW,2013-05-20 02:25:00,
2013-05-19 21:30:00,62.4,53.2,28.24,SSW,203,2.9,7.8,72,0.00,,,0.63,WUHU216HW,2013-05-20 02:30:00,
2013-05-19 21:35:00,62.4,52.8,28.24,NNW,338,1.7,17.2,71,0.00,,,0.63,WUHU216HW,2013-05-20 02:35:00,
2013-05-19 21:40:00,62.4,52.8,28.25,South,180,1.7,17.2,71,0.00,,,0.63,WUHU216HW,2013-05-20 02:40:00,
2013-05-19 21:45:00,62.0,52.5,28.25,NNW,338,4.2,4.2,71,0.00,,,0.63,WUHU216HW,2013-05-20 02:45:00,
2013-05-19 21:50:00,61.7,52.4,28.25,South,180,6.9,6.9,71,0.00,,,0.63,WUHU216HW,2013-05-20 02:50:00,
2013-05-19 21:55:00,61.5,52.4,28.26,SSW,203,0.0,6.9,72,0.00,,,0.63,WUHU216HW,2013-05-20 02:55:00,
2013-05-19 22:00:00,61.1,52.4,28.26,SW,225,0.0,3.1,73,0.00,,,0.63,WUHU216HW,2013-05-20 03:00:00,
2013-05-19 22:05:00,60.6,51.9,28.27,SW,225,0.0,0.0,73,0.00,,,0.63,WUHU216HW,2013-05-20 03:05:00,
2013-05-19 22:11:00,60.4,52.5,28.25,SW,225,1.5,1.5,75,0.00,,,0.63,WUHU216HW,2013-05-20 03:11:00,
2013-05-19 22:16:00,59.9,52.3,28.25,SW,225,0.0,1.5,76,0.02,,,0.65,WUHU216HW,2013-05-20 03:16:00,
2013-05-19 22:21:00,59.5,52.3,28.25,SW,225,0.0,1.5,77,0.02,,,0.65,WUHU216HW,2013-05-20 03:21:00,
2013-05-19 22:26:00,59.1,51.9,28.25,SW,225,0.0,0.0,77,0.02,,,0.65,WUHU216HW,2013-05-20 03:26:00,
2013-05-19 22:31:00,58.8,51.9,28.23,SW,225,0.0,0.0,78,0.02,,,0.65,WUHU216HW,2013-05-20 03:31:00,
2013-05-19 22:36:00,58.8,52.3,28.22,SW,225,4.9,4.9,79,0.02,,,0.65,WUHU216HW,2013-05-20 03:36:00,
2013-05-19 22:41:00,58.8,52.7,28.22,SW,225,3.8,4.9,80,0.02,,,0.65,WUHU216HW,2013-05-20 03:41:00,
2013-05-19 22:46:00,58.6,52.5,28.20,SW,225,2.4,4.9,80,0.02,,,0.65,WUHU216HW,2013-05-20 03:46:00,
2013-05-19 22:51:00,58.2,52.4,28.17,South,180,3.5,3.8,81,0.02,,,0.65,WUHU216HW,2013-05-20 03:51:00,
2013-05-19 22:56:00,58.2,52.8,28.17,East,90,0.0,3.8,82,0.02,,,0.65,WUHU216HW,2013-05-20 03:56:00,
2013-05-19 23:01:00,58.1,52.6,28.18,ESE,113,3.3,3.5,82,0.02,,,0.65,WUHU216HW,2013-05-20 04:01:00,
2013-05-19 23:02:00,58.1,52.6,28.17,East,90,2.2,3.3,82,0.02,,,0.65,WUHU216HW,2013-05-20 04:02:00,
2013-05-19 23:07:00,58.1,52.6,28.18,ESE,113,0.0,3.8,82,0.02,,,0.65,WUHU216HW,2013-05-20 04:07:00,
2013-05-19 23:12:00,58.1,52.9,28.16,ESE,113,1.3,3.8,83,0.00,,,0.65,WUHU216HW,2013-05-20 04:12:00,
2013-05-19 23:17:00,57.9,52.7,28.16,ESE,113,0.4,2.0,83,0.00,,,0.65,WUHU216HW,2013-05-20 04:17:00,
2013-05-19 23:23:00,58.1,52.9,28.17,ESE,113,0.8,2.2,83,0.00,,,0.65,WUHU216HW,2013-05-20 04:23:00,
2013-05-19 23:28:00,58.1,52.9,28.16,NE,45,5.5,5.5,83,0.00,,,0.65,WUHU216HW,2013-05-20 04:28:00,
2013-05-19 23:33:00,57.9,52.7,28.16,North,0,0.0,5.5,83,0.00,,,0.65,WUHU216HW,2013-05-20 04:33:00,
2013-05-19 23:38:00,58.1,52.9,28.17,North,0,0.0,5.5,83,0.00,,,0.65,WUHU216HW,2013-05-20 04:38:00,
2013-05-19 23:43:00,57.9,52.7,28.17,North,0,0.0,0.0,83,0.00,,,0.65,WUHU216HW,2013-05-20 04:43:00,
2013-05-19 23:48:00,57.9,52.7,28.17,North,0,0.0,0.0,83,0.00,,,0.65,WUHU216HW,2013-05-20 04:48:00,
2013-05-19 23:53:00,57.5,52.4,28.15,North,0,0.0,0.0,83,0.00,,,0.65,WUHU216HW,2013-05-20 04:53:00,
2013-05-19 23:58:00,57.3,51.9,28.14,North,0,0.0,0.0,82,0.00,,,0.65,WUHU216HW,2013-05-20 04:58:00,